{"data":{"norad_id":53844,"epoch":"2026-09-20T22:00:03.000096Z","epoch_age_seconds":48012,"freshness":"FRESH","line1":"1 53844U 22114AC  26263.91670139  .00018525  00000+0  94084-3 0  9997","line2":"2 53844  53.1593 136.8905 0003315 104.3437  14.6483 15.16948430  5808","mean_motion":15.1694843,"eccentricity":0.0003315,"inclination_deg":53.1593,"raan_deg":136.8905,"arg_perigee_deg":104.3437,"mean_anomaly_deg":14.6483,"bstar":0.00094084,"rev_number":580,"period_min":94.927419516826,"perigee_km":512.78452768291,"apogee_km":517.35472367573,"semimajor_km":6893.2066256793,"source":"CELESTRAK","updated_at":"2026-09-21T09:00:33.021756Z"}}